GW1765 Weather Reports


time (UTC)temp
C
wind
direction
speed
KPH
gust
KPH
rain 1hr
cm
rain 24hr
cm
rain mn
cm
humidity
%
barometer
mb
20260902100023 10 324 0.0 3.2 0.00 0.28 0.28 90 1019.3
20260902095020 11 318 3.2 4.8 0.00 0.28 0.28 90 1019.2
20260902094017 11 353 3.2 4.8 0.00 0.28 0.28 90 1019.1
20260902093114 11 333 4.8 6.4 0.00 0.28 0.28 90 1019.2
20260902092110 11 315 4.8 8.0 0.00 0.28 0.28 90 1019.2
20260902091106 11 305 6.4 8.0 0.00 0.28 0.28 90 1019.1
20260902085059 11 297 4.8 8.0 0.00 0.28 0.28 89 1019.1
20260902084139 11 315 3.2 6.4 0.00 0.28 0.28 89 1019.0
20260902083053 11 309 4.8 9.7 0.00 0.28 0.28 88 1019.1
20260902082049 11 310 4.8 6.4 0.00 0.28 0.28 87 1019.0
20260902081046 11 315 3.2 6.4 0.00 0.28 0.28 86 1018.9
20260902080044 11 318 3.2 6.4 0.00 0.28 0.28 86 1018.9
20260902075038 11 315 3.2 4.8 0.00 0.28 0.28 86 1018.9
20260902074036 11 320 3.2 6.4 0.00 0.28 0.28 86 1019.0
20260902073031 12 307 4.8 6.4 0.00 0.28 0.28 85 1019.0
20260902072029 12 315 6.4 11.3 0.00 0.28 0.28 85 1019.0
20260902071045 12 311 6.4 11.3 0.00 0.28 0.28 85 1019.0
20260902070041 12 315 4.8 8.0 0.00 0.28 0.28 85 1019.0
20260902065019 12 309 3.2 8.0 0.00 0.28 0.28 85 1019.0
20260902064114 12 323 6.4 11.3 0.00 0.28 0.28 84 1018.9
20260902063112 12 326 4.8 8.0 0.00 0.28 0.28 83 1018.9
20260902062108 12 315 6.4 12.9 0.00 0.28 0.28 82 1018.8
20260902061144 12 315 8.0 12.9 0.00 0.28 0.28 82 1018.7
20260902055056 12 275 6.4 12.9 0.00 0.28 0.28 78 1018.8
20260902054053 12 296 8.0 14.5 0.00 0.28 0.28 77 1018.8
20260902053049 12 275 8.0 12.9 0.00 0.28 0.28 76 1018.7
20260902052047 12 295 8.0 16.1 0.00 0.28 0.28 75 1018.6
20260902051043 13 285 6.4 14.5 0.00 0.28 0.28 73 1018.6
20260902050039 13 306 6.4 12.9 0.00 0.28 0.28 72 1018.7
20260902045035 13 275 3.2 6.4 0.00 0.28 0.28 71 1018.5
20260902044033 13 277 6.4 12.9 0.00 0.28 0.28 70 1018.4
20260902043028 13 270 6.4 14.5 0.00 0.28 0.28 68 1018.4
20260902042026 15 254 6.4 12.9 0.00 0.28 0.28 65 1018.5
20260902041022 15 250 4.8 12.9 0.00 0.28 0.28 65 1018.6
20260902040019 15 218 6.4 14.5 0.00 0.28 0.28 66 1018.7
20260902035114 15 284 11.3 20.9 0.00 0.28 0.28 64 1018.8
20260902034111 16 275 9.7 16.1 0.00 0.28 0.28 67 1018.9
20260902033108 15 266 6.4 12.9 0.00 0.28 0.28 70 1018.9
20260902032104 15 268 9.7 16.1 0.00 0.28 0.28 71 1018.8
20260902031142 15 285 8.0 19.3 0.00 0.28 0.28 71 1018.8
20260902030059 15 284 9.7 14.5 0.00 0.28 0.28 71 1018.8
20260902025053 15 303 8.0 16.1 0.00 0.28 0.28 71 1018.8
20260902024050 15 285 8.0 17.7 0.00 0.28 0.28 72 1018.8
20260902023108 15 278 8.0 17.7 0.00 0.28 0.28 71 1019.0
20260902022044 15 240 6.4 14.5 0.00 0.28 0.28 73 1018.8
20260902021041 15 277 9.7 17.7 0.00 0.28 0.28 71 1018.9
20260902020035 15 248 6.4 12.9 0.00 0.28 0.28 71 1019.1
20260902015054 15 242 6.4 12.9 0.00 0.28 0.28 72 1019.2
20260902014030 15 273 9.7 16.1 0.03 0.28 0.28 71 1019.4
20260902013027 16 281 8.0 12.9 0.03 0.28 0.28 76 1019.5
20260902012043 15 253 8.0 17.7 0.05 0.28 0.28 79 1019.5
20260902011018 14 273 6.4 12.9 0.05 0.28 0.28 76 1019.8
20260902010138 14 252 4.8 12.9 0.05 0.28 0.28 72 1019.9
20260902005132 15 236 9.7 20.9 0.05 0.28 0.28 70 1020.0
20260902004110 16 247 11.3 17.7 0.03 0.23 0.23 69 1020.0
20260902003105 16 253 9.7 17.7 0.03 0.23 0.23 70 1020.2
20260902002143 17 253 6.4 12.9 0.00 0.20 0.20 75 1020.2
20260902001120 15 178 9.7 14.5 0.03 0.20 0.20 77 1020.3
20260902000054 15 265 8.0 17.7 0.03 0.20 0.20 76 1020.6
20260901235052 15 236 8.0 17.7 0.03 0.20 0.20 78 1020.7
20260901234047 14 218 8.0 14.5 0.03 0.20 0.20 76 1020.6
20260901233044 13 225 11.3 17.7 0.03 0.20 0.20 72 1020.6
20260901232040 15 269 8.0 17.7 0.03 0.20 0.20 71 1020.4
20260901231039 15 225 11.3 17.7 0.00 0.18 0.18 71 1020.3
20260901230033 15 248 8.0 14.5 0.00 0.18 0.18 71 1020.4
20260901225031 16 242 8.0 17.7 0.00 0.18 0.18 71 1020.5
20260901224048 16 272 8.0 17.7 0.00 0.18 0.18 75 1020.5
20260901223023 15 253 6.4 17.7 0.00 0.18 0.18 78 1020.4
20260901222019 15 254 8.0 12.9 0.00 0.18 0.18 80 1020.5
20260901221016 14 225 9.7 16.1 0.00 0.18 0.18 83 1020.5
20260901220113 14 231 6.4 16.1 0.00 0.18 0.18 86 1020.6
20260901215129 14 220 11.3 16.1 0.00 0.18 0.18 90 1020.6
20260901214105 13 229 8.0 14.5 0.00 0.18 0.18 92 1020.6
20260901213104 14 205 9.7 12.9 0.00 0.18 0.18 94 1020.6
20260901212059 13 221 8.0 12.9 0.00 0.18 0.18 95 1020.7
20260901211057 13 229 6.4 12.9 0.00 0.18 0.18 94 1020.7
20260901210055 13 213 9.7 14.5 0.00 0.18 0.18 95 1020.8
20260901205049 13 198 8.0 12.9 0.00 0.18 0.18 95 1020.7
20260901204045 -17 0.0 0.0 0.00 0.18 0.18 1020.6
20260901203102 -17 0.0 0.0 0.00 0.18 0.18 1020.4
20260901202038 11 180 6.4 8.0 0.00 0.18 0.18 96 1020.4
20260901201034 11 185 6.4 11.3 0.00 0.18 0.18 96 1020.3
20260901200032 11 180 4.8 6.4 0.00 0.18 0.18 95 1020.4
20260901195030 10 211 8.0 24.1 0.00 0.18 0.18 95 1020.4
20260901194024 10 112 1.6 4.8 0.00 0.18 0.18 95 1020.2
20260901193022 10 93 1.6 3.2 0.00 0.18 0.18 94 1020.0
20260901192018 10 153 0.0 3.2 0.03 0.18 0.18 94 1020.0
20260901191114 10 210 1.6 4.8 0.03 0.18 0.18 94 1020.0
20260901190113 10 217 0.0 3.2 0.03 0.18 0.18 94 1019.9
20260901185109 10 217 3.2 6.4 0.03 0.18 0.18 94 1019.8
20260901184103 10 164 1.6 6.4 0.05 0.18 0.18 94 1019.9
20260901183102 10 135 1.6 6.4 0.10 0.18 0.18 94 1019.8
20260901182058 10 216 3.2 6.4 0.05 0.15 0.15 93 1019.9
20260901181052 10 226 6.4 8.0 0.05 0.15 0.15 93 1019.7
20260901180050 10 239 4.8 14.5 0.05 0.15 0.15 93 1019.7
20260901175046 10 248 1.6 4.8 0.05 0.15 0.15 93 1019.5
20260901174042 10 135 0.0 3.2 0.03 0.13 0.13 93 1019.5
20260901173039 10 182 3.2 6.4 0.00 0.10 0.10 93 1019.5
20260901172037 10 216 4.8 9.7 0.00 0.10 0.10 93 1019.5
20260901171031 10 235 8.0 12.9 0.00 0.10 0.10 92 1019.3
20260901170048 10 247 1.6 6.4 0.00 0.10 0.10 92 1019.2
20260901165026 10 203 1.6 4.8 0.00 0.10 0.10 92 1019.1
20260901164043 10 203 1.6 3.2 0.00 0.10 0.10 92 1019.1
20260901163017 10 198 3.2 4.8 0.00 0.10 0.10 92 1019.0
20260901162117 10 225 3.2 6.4 0.00 0.10 0.10 91 1019.0
20260901161111 10 225 1.6 6.4 0.00 0.10 0.10 91 1019.0
20260901160108 10 233 4.8 12.9 0.00 0.10 0.10 91 1019.0
20260901155104 10 227 3.2 12.9 0.00 0.10 0.10 91 1018.7
20260901154100 10 231 0.0 6.4 0.00 0.10 0.10 91 1018.8
20260901153058 10 220 1.6 4.8 0.00 0.10 0.10 90 1018.7
20260901152053 10 204 3.2 6.4 0.00 0.10 0.10 90 1018.9
20260901151050 10 229 1.6 6.4 0.00 0.10 0.10 90 1019.0
20260901150046 10 245 0.0 4.8 0.00 0.10 0.10 90 1019.0
20260901145043 10 217 0.0 3.2 0.00 0.10 0.10 89 1019.2
20260901144039 10 135 0.0 3.2 0.00 0.10 0.10 89 1019.2
20260901143057 10 270 0.0 3.2 0.03 0.10 0.10 88 1019.3
20260901142032 10 237 3.2 8.0 0.03 0.10 0.10 88 1019.5
20260901141028 10 268 3.2 6.4 0.03 0.10 0.10 87 1019.5
20260901140045 10 191 3.2 8.0 0.05 0.10 0.10 86 1019.5
20260901135043 10 203 11.3 17.7 0.05 0.10 0.10 85 1019.6
20260901134018 10 220 12.9 22.5 0.10 0.10 0.10 84 1019.6
20260901133115 10 212 4.8 8.0 0.05 0.05 0.05 84 1019.5
20260901132111 10 218 6.4 11.3 0.05 0.05 0.05 83 1019.6
20260901131108 10 226 6.4 14.5 0.05 0.05 0.05 83 1019.6
20260901130105 10 180 6.4 11.3 0.03 0.03 0.03 82 1019.6
20260901125101 10 196 4.8 17.7 0.03 0.03 0.03 82 1019.7
20260901124057 10 168 1.6 6.4 0.00 0.00 0.00 82 1019.7
20260901123115 10 177 3.2 6.4 0.00 0.00 0.00 82 1019.6
20260901122052 10 211 3.2 6.4 0.00 0.00 0.00 81 1019.6
20260901121047 9 213 6.4 11.3 0.00 0.00 0.00 81 1019.6
20260901120043 9 270 4.8 9.7 0.00 0.00 0.00 81 1019.6
20260901115042 9 250 6.4 11.3 0.00 0.00 0.00 81 1019.5
20260901114057 9 221 8.0 12.9 0.00 0.03 0.00 81 1019.4
20260901113053 10 223 6.4 9.7 0.00 0.10 0.00 81 1019.3
20260901112031 10 215 8.0 12.9 0.00 0.10 0.00 81 1019.3
20260901111026 10 192 8.0 12.9 0.00 0.10 0.00 80 1019.3
20260901110103 9 189 8.0 12.9 0.00 0.10 0.00 80 1019.3
20260901105019 9 189 9.7 16.1 0.00 0.10 0.00 80 1019.4
20260901104018 9 180 11.3 16.1 0.00 0.10 0.00 80 1019.3
20260901103112 9 194 14.5 20.9 0.00 0.10 0.00 81 1019.4
20260901102151 10 199 17.7 25.7 0.00 0.10 0.00 81 1019.5
20260901101105 9 211 14.5 24.1 0.00 0.10 0.00 81 1019.5